Content
SEND FEEDBACK

Daily
Averages
Monthly
Summary
Philippines

CAVITE, PHILIPPINES


Home > Asia > Philippines
Elevation: 13 feet     Latitude: 14 30N     Longitude: 120 55E

WEATHER
 
SELECT A DAY
Number of Records: 176,295;   Date Range: 7/1/96 - 9/28/14
 
SHARE

PRINT THIS DATA

[ ← Previous Day ]
WEATHER ALMANAC - SEPTEMBER 8, 2013
[ Next Day → ]
[ °C ]   °F
Weather ElementAverageHighLow
Temperature81.7 °F87.8 °F (12:00 pm)78.8 °F (3:00 am)
Dewpoint78.4 °F80.6 °F (5:00 pm)75.2 °F (7:00 am)
Humidity89.8 %100 % (3:00 am)66 % (12:00 pm)
Barometer29.80 in29.86 in (10:00 am)29.74 in (3:00 pm)
Wind Speed4 mph10.4 mph (1:00 pm)
Weather ElementAverage
Visibility6.1 mi
Wind DirectionESE (100.7 °)

Weather ElementTotal
Precipitation---
Cooling Degree Days18.3 (Base 65)
Growing Degree Days33.3 (Base 50)
Averaged from 29 records on September 8, 2013
WEATHER CONDITIONS BREAKOUT
WIND DIRECTION BREAKOUT
WEATHER BY HOUR - SEPTEMBER 8, 2013
[ °C ]   °F
Local TimeTemperatureDewpointHumidityBarometerVisibilityWind DirectionWind SpeedGust SpeedPrecipitationEventsConditions
1:00 AM82.4 °F78.8 °F89 %29.77 in6.2 miWSW (250°)2.3 mphScattered Clouds
2:00 AM80.6 °F78.8 °F94 %29.80 in6.2 miNNW (330°)4.6 mphScattered Clouds
3:00 AM78.8 °F78.8 °F100 %29.77 in6.2 miSSE (160°)3.5 mphScattered Clouds
4:00 AM78.8 °F78.8 °F100 %29.77 in6.2 miCalmScattered Clouds
5:00 AM78.8 °F78.8 °F100 %29.77 in6.2 miEast (80°)2.3 mphMostly Cloudy
6:00 AM78.8 °F77.0 °F94 %29.80 in6.2 miVariable2.3 mphMostly Cloudy
7:00 AM80.6 °F75.2 °F84 %29.83 in6.2 miVariable6.9 mphMostly Cloudy
8:00 AM82.4 °F77.0 °F84 %29.83 in6.2 miEast (90°)3.5 mphOvercast
8:00 AM82.0 °F77.0 °F80 %29.85 in6.0 miEast (90°)4.5 mphHaze
9:00 AM82.4 °F77.0 °F84 %29.83 in6.2 miEast (90°)5.8 mphOvercast
10:00 AM82.4 °F78.8 °F89 %29.86 in5.6 miENE (70°)5.8 mphRainLight Rain Showers
11:00 AM83.0 °F76.0 °F73 %29.85 in6.0 miNNE (20°)2.2 mphRainLight Rain
11:00 AM84.2 °F75.2 °F74 %29.83 in6.2 miNE (40°)3.5 mphRainLight Rain
12:00 PM87.8 °F75.2 °F66 %29.80 in6.2 miWest (270°)4.6 mphMostly Cloudy
1:00 PM86.0 °F77.0 °F74 %29.77 in6.2 miWNW (300°)10.4 mphMostly Cloudy
2:00 PM84.2 °F77.0 °F79 %29.77 in6.2 miWNW (300°)6.9 mphRainLight Rain Showers
3:00 PM84.2 °F78.8 °F84 %29.74 in6.2 miSSW (210°)6.9 mphOvercast
3:15 PM82.4 °F78.8 °F89 %29.77 in6.2 miSouth (190°)3.5 mphRainLight Rain Showers
4:00 PM82.4 °F78.8 °F89 %29.77 in6.2 miSouth (170°)3.5 mphRainLight Rain Showers
5:00 PM81.0 °F80.0 °F96 %29.78 in6.0 miSE (140°)2.2 mphRainLight Rain Showers
5:00 PM80.6 °F80.6 °F100 %29.77 in5.6 miVariable1.2 mphRainLight Rain
6:00 PM80.6 °F80.6 °F100 %29.80 in5.6 miVariable2.3 mphRainLight Rain
7:00 PM80.6 °F78.8 °F94 %29.80 in6.2 miVariable3.5 mphRainLight Rain
8:00 PM80.0 °F79.0 °F97 %29.82 in6.0 miNNE (20°)2.2 mphRainLight Rain
8:00 PM80.6 °F78.8 °F94 %29.80 in6.2 miENE (70°)3.5 mphMostly Cloudy
9:00 PM80.6 °F80.6 °F100 %29.83 in6.2 miNNE (20°)3.5 mphScattered Clouds
10:00 PM80.6 °F80.6 °F100 %29.83 in6.2 miVariable2.3 mphPartly Cloudy
11:00 PM81.0 °F80.0 °F96 %29.84 in6.0 miNorth (10°)6.7 mphHaze
11:00 PM80.6 °F80.6 °F100 %29.83 in5.6 miVariable5.8 mphPartly Cloudy
Hourly data recorded from RPLL, located miles away from Cavite, Philippines







STORIES FROM OUR PARTNERS